Bismarck, ND

3:01 PM CDT on June 23, 2017 (GMT -0500)
Bismarck Municipal

Weather History for KBIS - December, 2011

Change the Weather History Date:

Saturday, December 24, 2011

  Actual Average Record
Temperature  
Mean Temperature 35 °F 14 °F  
Max Temperature 43 °F 24 °F 49 °F (1881)
Min Temperature 27 °F 4 °F -38 °F (1879)
Degree Days  
Heating Degree Days 30 51  
Month to date heating degree days 1001 1152  
Since 1 July heating degree days 2735 3138  
Cooling Degree Days 0 0  
Month to date cooling degree days 0 0  
Year to date cooling degree days 425 520  
Moisture  
Dew Point 21 °F    
Average Humidity 55    
Maximum Humidity 69    
Minimum Humidity 41    
Precipitation  
Precipitation 0.00 in 0.02 in 0.18 in (1950)
Month to date precipitation 0.18 0.37  
Year to date precipitation 22.93 17.73  
Snow  
Snow 0.00 in 0.30 in 4.00 in (1888)
Month to date snowfall 3.0 6.9  
Since 1 July snowfall 3.6 18.1  
Snow Depth 0.00 in    
Sea Level Pressure  
Sea Level Pressure 30.16 in    
Wind  
Wind Speed 13 mph (West)    
Max Wind Speed 22 mph    
Max Gust Speed 28 mph    
Visibility 10 miles    
Events      
T = Trace of Precipitation, MM = Missing Value Source: NWS Daily Summary

Daily Weather History Graph

Daily Weather History Graph

Search for Another Location

Airport or City:

Trip Planner

Search our weather history database for the weather conditions in past years. The results will help you decide how hot, cold, wet, or windy it might be!

Date:

Astronomy

Dec. 24, 2011 Rise Set
Actual Time 8:26 AM CST 4:58 PM CST
Civil Twilight 7:50 AM CST 5:34 PM CST
Nautical Twilight 7:12 AM CST 6:12 PM CST
Astronomical Twilight 6:35 AM CST 6:49 PM CST
Moon 8:15 AM CST (12/24) 5:14 PM CST (12/24)
Length of Visible Light 9h 43m
Length of Day
8h 32m
New Moon, 0% of the Moon is Illuminated
Dec 24
New Moon
Dec 24
New
Jan 1
First Quarter
Jan 9
Full
Jan 16
Last Quarter

Hourly Weather History & Observations

Time (CST) Temp. Windchill Dew Point Humidity Pressure Visibility Wind Dir Wind Speed Gust Speed Precip Events Conditions
12:52 AM 33.8 °F 23.2 °F 19.4 °F 56% 30.04 in 10.0 mi WNW 17.3 mph 24.2 mph N/A   Clear
1:52 AM 32.0 °F 22.1 °F 19.0 °F 59% 30.10 in 10.0 mi WNW 13.8 mph - N/A   Clear
2:52 AM 30.9 °F 21.7 °F 19.0 °F 61% 30.12 in 10.0 mi West 11.5 mph - N/A   Clear
3:52 AM 30.9 °F 21.2 °F 19.0 °F 61% 30.13 in 10.0 mi West 12.7 mph - N/A   Clear
4:52 AM 30.9 °F 20.2 °F 19.0 °F 61% 30.14 in 10.0 mi West 15.0 mph - N/A   Clear
5:52 AM 28.9 °F 19.2 °F 19.0 °F 67% 30.18 in 10.0 mi West 11.5 mph - N/A   Clear
6:52 AM 28.0 °F 19.3 °F 19.0 °F 69% 30.17 in 10.0 mi West 9.2 mph - N/A   Clear
7:52 AM 30.9 °F 21.2 °F 19.0 °F 61% 30.17 in 10.0 mi West 12.7 mph - N/A   Clear
8:52 AM 32.0 °F 24.8 °F 19.0 °F 59% 30.16 in 10.0 mi West 8.1 mph - N/A   Clear
9:52 AM 36.0 °F 29.0 °F 19.9 °F 52% 30.14 in 10.0 mi West 9.2 mph - N/A   Clear
10:52 AM 37.9 °F 30.0 °F 19.9 °F 48% 30.16 in 10.0 mi WNW 12.7 mph 20.7 mph N/A   Clear
11:52 AM 39.9 °F 34.5 °F 19.9 °F 45% 30.14 in 10.0 mi West 8.1 mph 17.3 mph N/A   Clear
12:52 PM 41.0 °F 34.3 °F 19.9 °F 43% 30.14 in 10.0 mi WNW 11.5 mph 17.3 mph N/A   Clear
1:52 PM 42.8 °F 37.0 °F 21.2 °F 42% 30.07 in 10.0 mi West 10.4 mph - N/A   Clear
2:52 PM 43.0 °F 38.8 °F 21.0 °F 42% 30.12 in 10.0 mi West 6.9 mph - N/A   Clear
3:52 PM 42.1 °F 35.7 °F 21.0 °F 43% 30.13 in 10.0 mi WNW 11.5 mph - N/A   Clear
4:52 PM 39.9 °F 33.9 °F 21.9 °F 49% 30.14 in 10.0 mi WNW 9.2 mph - N/A   Clear
5:52 PM 41.0 °F 32.2 °F 21.9 °F 47% 30.16 in 10.0 mi West 18.4 mph 25.3 mph N/A   Clear
6:52 PM 39.9 °F 30.5 °F 21.9 °F 49% 30.18 in 10.0 mi WNW 19.6 mph 27.6 mph N/A   Clear
7:52 PM 37.9 °F 27.9 °F 23.0 °F 55% 30.21 in 10.0 mi WNW 19.6 mph 26.5 mph N/A   Clear
8:52 PM 34.0 °F 24.6 °F 23.0 °F 64% 30.23 in 10.0 mi WNW 13.8 mph - N/A   Clear
9:52 PM 34.0 °F 23.4 °F 23.0 °F 64% 30.22 in 10.0 mi West 17.3 mph - N/A   Clear
10:52 PM 33.1 °F 23.9 °F 23.0 °F 66% 30.26 in 10.0 mi WNW 12.7 mph - N/A   Clear
11:52 PM 33.1 °F 24.9 °F 21.9 °F 64% 30.28 in 10.0 mi WNW 10.4 mph 18.4 mph N/A   Clear